FW0807 Weather Reports


Display with metric or nautical units.
time (UTC)temp
F
wind
direction
speed
MPH
gust
MPH
rain 1hr
in
rain 24hr
in
rain mn
in
humidity
%
barometer
mb
20260504201502 78 229 8.0 14.0 0.00 0.00 0.00 50 1008.2
20260504200002 78 215 8.0 22.0 0.00 0.00 0.00 51 1008.3
20260504194610 78 207 6.0 17.0 0.00 0.00 0.00 52 1008.5
20260504193058 78 202 8.0 16.0 0.00 0.00 0.00 54 1008.6
20260504191556 78 259 7.0 14.0 0.00 0.00 0.00 54 1008.8
20260504190122 78 192 6.0 16.0 0.00 0.00 0.00 53 1008.7
20260504184557 78 209 7.0 18.0 0.00 0.00 0.00 52 1008.9
20260504183051 77 229 7.0 13.0 0.00 0.00 0.00 51 1009.1
20260504181553 78 180 6.0 14.0 0.00 0.00 0.00 54 1009.1
20260504180128 77 196 7.0 16.0 0.00 0.00 0.00 52 1009.2
20260504174548 77 234 9.0 15.0 0.00 0.00 0.00 52 1009.4
20260504173056 76 205 8.0 14.0 0.00 0.00 0.00 55 1009.8
20260504171539 76 229 8.0 17.0 0.00 0.00 0.00 53 1010.1
20260504081504 61 242 1.0 8.0 0.00 0.00 0.00 78 1011.8
20260504050105 63 180 2.0 5.0 0.00 0.00 0.00 71 1013.2
20260504044539 64 161 3.0 5.0 0.00 0.00 0.00 70 1013.4
20260504043038 64 196 1.0 6.0 0.00 0.00 0.00 70 1013.5
20260504041538 64 159 3.0 7.0 0.00 0.00 0.00 70 1013.6
20260504040138 64 186 2.0 6.0 0.00 0.00 0.00 70 1013.7
20260504034547 63 192 1.0 6.0 0.00 0.00 0.00 71 1013.9
20260504033036 64 192 3.0 6.0 0.00 0.00 0.00 70 1014.0
20260504031542 64 186 2.0 6.0 0.00 0.00 0.00 69 1013.9
20260504030040 64 224 1.0 5.0 0.00 0.00 0.00 69 1014.0
20260504024538 64 203 1.0 5.0 0.00 0.00 0.00 69 1013.9
20260504023033 64 184 2.0 5.0 0.00 0.00 0.00 69 1013.6
20260504021533 62 190 2.0 6.0 0.00 0.00 0.00 73 1013.6
20260504020132 61 175 0.0 2.0 0.00 0.00 0.00 74 1013.7
20260504014532 61 175 0.0 1.0 0.00 0.00 0.00 75 1013.6
20260504013030 63 197 0.0 1.0 0.00 0.00 0.00 73 1013.5
20260504011531 64 197 0.0 2.0 0.00 0.00 0.00 68 1013.4
20260504010030 67 175 0.0 2.0 0.00 0.00 0.00 64 1013.3
20260504004530 69 170 0.0 5.0 0.00 0.00 0.00 58 1013.2
20260504003027 71 194 3.0 4.0 0.00 0.00 0.00 56 1013.4
20260504001526 72 194 2.0 6.0 0.00 0.00 0.00 55 1013.4
20260504000025 73 165 3.0 8.0 0.00 0.00 0.00 54 1013.6
20260503234527 73 192 5.0 11.0 0.00 0.00 0.00 51 1013.6
20260503233024 74 176 5.0 9.0 0.00 0.00 0.00 51 1013.9
20260503231522 74 238 2.0 8.0 0.00 0.00 0.00 52 1014.0
20260503230020 74 217 4.0 9.0 0.00 0.00 0.00 52 1014.0
20260503224520 75 230 5.0 9.0 0.00 0.00 0.00 51 1014.2
20260503223023 75 205 4.0 13.0 0.00 0.00 0.00 50 1014.2
20260503221516 75 194 2.0 8.0 0.00 0.00 0.00 51 1014.4
20260503220017 75 169 4.0 11.0 0.00 0.00 0.00 49 1014.7
20260503214514 75 239 4.0 10.0 0.00 0.00 0.00 48 1015.0
20260503213011 75 238 3.0 8.0 0.00 0.00 0.00 48 1014.9
20260503211516 75 231 3.0 6.0 0.00 0.00 0.00 51 1015.3
20260503210015 75 180 3.0 13.0 0.00 0.00 0.00 48 1015.8
20260503204624 75 163 5.0 11.0 0.00 0.00 0.00 49 1016.1
20260503203005 74 200 5.0 10.0 0.00 0.00 0.00 49 1016.2